Stündliche Wetter Abu `Ushar

Heute, 22 Juni, Dienstag

Zeit Temperatur Niederschläge Wind Luftdruck Luftfeuchtigkeit
00:00 +35°C° 0.5 mm 3 m/S 722 mmHg 39%
01:00 +32°C° 0.5 mm 5 m/S 723 mmHg 45%
02:00 +29°C° 0 mm 7 m/S 723 mmHg 50%
03:00 +30°C° 0.1 mm 6 m/S 722 mmHg 48%
04:00 +30°C° 0.1 mm 6 m/S 722 mmHg 46%
05:00 +30°C° 0.1 mm 5 m/S 722 mmHg 45%
06:00 +32°C° 0 mm 5 m/S 722 mmHg 43%
07:00 +33°C° 0 mm 5 m/S 723 mmHg 41%
08:00 +34°C° 0 mm 5 m/S 723 mmHg 40%
09:00 +36°C° 0 mm 5 m/S 723 mmHg 36%
10:00 +37°C° 0 mm 4 m/S 723 mmHg 32%
11:00 +39°C° 0 mm 3 m/S 723 mmHg 29%
12:00 +40°C° 0 mm 3 m/S 723 mmHg 27%
13:00 +40°C° 0 mm 2 m/S 722 mmHg 25%
14:00 +41°C° 0 mm 2 m/S 722 mmHg 23%
15:00 +41°C° 0 mm 2 m/S 721 mmHg 22%
16:00 +41°C° 0 mm 2 m/S 721 mmHg 21%
17:00 +42°C° 0 mm 2 m/S 721 mmHg 20%
18:00 +41°C° 0 mm 2 m/S 721 mmHg 21%
19:00 +40°C° 0 mm 2 m/S 721 mmHg 22%
20:00 +40°C° 0 mm 2 m/S 722 mmHg 23%
21:00 +39°C° 0 mm 2 m/S 722 mmHg 25%
22:00 +39°C° 0 mm 1 m/S 722 mmHg 26%
23:00 +37°C° 0 mm 1 m/S 722 mmHg 28%

Morgen, 23 Juni, Mittwoch

Zeit Temperatur Niederschläge Wind Luftdruck Luftfeuchtigkeit
00:00 +36°C° 0 mm 1 m/S 721 mmHg 28%
01:00 +37°C° 0 mm 2 m/S 721 mmHg 29%
02:00 +36°C° 0 mm 3 m/S 721 mmHg 30%
03:00 +35°C° 0 mm 4 m/S 721 mmHg 34%
04:00 +34°C° 0 mm 4 m/S 721 mmHg 38%
05:00 +33°C° 0 mm 5 m/S 722 mmHg 41%
06:00 +34°C° 0 mm 6 m/S 722 mmHg 40%
07:00 +35°C° 0 mm 6 m/S 723 mmHg 38%
08:00 +35°C° 0 mm 7 m/S 723 mmHg 36%
09:00 +38°C° 0 mm 7 m/S 723 mmHg 34%
10:00 +39°C° 0 mm 7 m/S 723 mmHg 32%
11:00 +40°C° 0 mm 7 m/S 723 mmHg 30%
12:00 +40°C° 0 mm 6 m/S 723 mmHg 29%
13:00 +41°C° 0 mm 6 m/S 722 mmHg 27%
14:00 +42°C° 0 mm 5 m/S 722 mmHg 26%
15:00 +42°C° 0 mm 5 m/S 721 mmHg 25%
16:00 +42°C° 0 mm 4 m/S 721 mmHg 25%
17:00 +42°C° 0 mm 4 m/S 721 mmHg 24%
18:00 +40°C° 0 mm 3 m/S 721 mmHg 25%
19:00 +40°C° 0 mm 3 m/S 721 mmHg 27%
20:00 +39°C° 0 mm 3 m/S 721 mmHg 28%
21:00 +38°C° 0 mm 3 m/S 721 mmHg 30%
22:00 +38°C° 0 mm 4 m/S 721 mmHg 31%
23:00 +37°C° 0 mm 4 m/S 721 mmHg 33%

übermorgen, 24 Juni, Donnerstag

Zeit Temperatur Niederschläge Wind Luftdruck Luftfeuchtigkeit
00:00 +36°C° 0 mm 6 m/S 721 mmHg 37%
01:00 +34°C° 0 mm 8 m/S 721 mmHg 41%
02:00 +33°C° 0 mm 10 m/S 721 mmHg 45%
03:00 +32°C° 0 mm 10 m/S 722 mmHg 49%
04:00 +31°C° 0 mm 10 m/S 722 mmHg 52%
05:00 +29°C° 0 mm 10 m/S 722 mmHg 56%
06:00 +31°C° 0 mm 10 m/S 723 mmHg 53%
07:00 +32°C° 0 mm 9 m/S 723 mmHg 49%
08:00 +33°C° 0 mm 9 m/S 724 mmHg 46%
09:00 +34°C° 0 mm 8 m/S 724 mmHg 41%
10:00 +37°C° 0 mm 8 m/S 724 mmHg 37%
11:00 +39°C° 0 mm 8 m/S 724 mmHg 32%
12:00 +40°C° 0 mm 7 m/S 723 mmHg 30%
13:00 +41°C° 0 mm 7 m/S 723 mmHg 28%
14:00 +43°C° 0 mm 7 m/S 722 mmHg 25%
15:00 +42°C° 0 mm 6 m/S 722 mmHg 25%
16:00 +42°C° 0 mm 6 m/S 722 mmHg 25%
17:00 +42°C° 0 mm 6 m/S 722 mmHg 24%
18:00 +41°C° 0 mm 5 m/S 722 mmHg 26%
19:00 +41°C° 0 mm 4 m/S 722 mmHg 27%
20:00 +39°C° 0 mm 3 m/S 722 mmHg 28%
21:00 +38°C° 0 mm 3 m/S 722 mmHg 29%
22:00 +37°C° 0 mm 4 m/S 722 mmHg 31%
23:00 +37°C° 0 mm 4 m/S 722 mmHg 33%

25 Juni, Freitag

Zeit Temperatur Niederschläge Wind Luftdruck Luftfeuchtigkeit
00:00 +36°C° 0 mm 5 m/S 722 mmHg 34%
01:00 +36°C° 0 mm 6 m/S 722 mmHg 35%
02:00 +35°C° 0 mm 6 m/S 722 mmHg 36%
03:00 +34°C° 0 mm 7 m/S 722 mmHg 38%
04:00 +34°C° 0 mm 8 m/S 722 mmHg 40%
05:00 +33°C° 0 mm 8 m/S 723 mmHg 43%
06:00 +34°C° 0 mm 8 m/S 723 mmHg 41%
07:00 +34°C° 0 mm 8 m/S 724 mmHg 38%
08:00 +35°C° 0 mm 8 m/S 724 mmHg 36%
09:00 +37°C° 0 mm 8 m/S 724 mmHg 34%
10:00 +39°C° 0 mm 8 m/S 724 mmHg 31%
11:00 +40°C° 0 mm 7 m/S 724 mmHg 29%
12:00 +41°C° 0 mm 7 m/S 723 mmHg 27%
13:00 +43°C° 0 mm 7 m/S 722 mmHg 25%
14:00 +44°C° 0 mm 6 m/S 722 mmHg 23%
15:00 +44°C° 0 mm 6 m/S 721 mmHg 23%
16:00 +42°C° 0 mm 5 m/S 721 mmHg 23%
17:00 +42°C° 0 mm 4 m/S 721 mmHg 22%
18:00 +42°C° 0 mm 4 m/S 721 mmHg 24%
19:00 +40°C° 0 mm 3 m/S 721 mmHg 25%
20:00 +40°C° 0 mm 2 m/S 722 mmHg 26%
21:00 +39°C° 0.1 mm 2 m/S 722 mmHg 27%
22:00 +39°C° 0.1 mm 3 m/S 722 mmHg 28%
23:00 +38°C° 0.1 mm 3 m/S 722 mmHg 29%

26 Juni, Samstag

Zeit Temperatur Niederschläge Wind Luftdruck Luftfeuchtigkeit
00:00 +36°C° 0.1 mm 5 m/S 721 mmHg 35%
01:00 +34°C° 0.1 mm 7 m/S 721 mmHg 42%
02:00 +32°C° 0.1 mm 9 m/S 721 mmHg 49%
03:00 +32°C° 0 mm 8 m/S 721 mmHg 48%
04:00 +32°C° 0 mm 8 m/S 721 mmHg 48%
05:00 +32°C° 0 mm 7 m/S 721 mmHg 47%
06:00 +34°C° 0 mm 7 m/S 721 mmHg 43%
07:00 +35°C° 0 mm 6 m/S 722 mmHg 40%
08:00 +36°C° 0 mm 6 m/S 722 mmHg 37%
09:00 +39°C° 0 mm 6 m/S 722 mmHg 33%
10:00 +40°C° 0 mm 5 m/S 722 mmHg 28%
11:00 +42°C° 0 mm 5 m/S 722 mmHg 24%
12:00 +43°C° 0 mm 5 m/S 721 mmHg 22%
13:00 +45°C° 0 mm 5 m/S 721 mmHg 20%
14:00 +46°C° 0 mm 5 m/S 720 mmHg 18%
15:00 +45°C° 0 mm 4 m/S 720 mmHg 18%
16:00 +45°C° 0 mm 4 m/S 719 mmHg 17%
17:00 +45°C° 0 mm 4 m/S 719 mmHg 17%
18:00 +44°C° 0 mm 3 m/S 719 mmHg 19%
19:00 +42°C° 0 mm 2 m/S 719 mmHg 20%
20:00 +41°C° 0 mm 2 m/S 719 mmHg 22%
21:00 +40°C° 0 mm 2 m/S 719 mmHg 23%
22:00 +38°C° 0 mm 3 m/S 720 mmHg 25%
23:00 +37°C° 0 mm 4 m/S 720 mmHg 26%

27 Juni, Sonntag

Zeit Temperatur Niederschläge Wind Luftdruck Luftfeuchtigkeit
00:00 +36°C° 0 mm 5 m/S 720 mmHg 33%
01:00 +35°C° 0 mm 6 m/S 720 mmHg 39%
02:00 +33°C° 0 mm 7 m/S 720 mmHg 46%
03:00 +33°C° 0 mm 7 m/S 720 mmHg 48%
04:00 +32°C° 0 mm 7 m/S 720 mmHg 50%
05:00 +32°C° 0 mm 7 m/S 721 mmHg 52%
06:00 +33°C° 0 mm 7 m/S 721 mmHg 49%
07:00 +34°C° 0 mm 6 m/S 722 mmHg 46%
08:00 +34°C° 0 mm 5 m/S 722 mmHg 43%
09:00 +36°C° 0 mm 5 m/S 722 mmHg 37%
10:00 +39°C° 0 mm 6 m/S 722 mmHg 32%
11:00 +41°C° 0 mm 6 m/S 722 mmHg 27%
12:00 +42°C° 0 mm 6 m/S 722 mmHg 24%
13:00 +44°C° 0 mm 6 m/S 721 mmHg 22%
14:00 +45°C° 0 mm 6 m/S 721 mmHg 19%
15:00 +45°C° 0 mm 6 m/S 720 mmHg 19%
16:00 +45°C° 0 mm 5 m/S 720 mmHg 19%
17:00 +45°C° 0 mm 5 m/S 720 mmHg 19%
18:00 +43°C° 0 mm 5 m/S 720 mmHg 20%
19:00 +42°C° 0 mm 5 m/S 721 mmHg 22%
20:00 +41°C° 0 mm 5 m/S 721 mmHg 24%
21:00 +40°C° 0 mm 4 m/S 721 mmHg 27%
22:00 +38°C° 0 mm 4 m/S 721 mmHg 29%
23:00 +37°C° 0 mm 4 m/S 721 mmHg 32%
Mehr zeigen

Wir brauchen deine Erlaubnis

Meteoprog und unser Service Anbieter werden persönliche Daten aufbewahren, so wie Cookies, Geräte Bezeichnung oder ähnliche Technologien von deinem Gerät und Prozess, so wie Persönliche Daten Inhalte und Werbungen, genauso wie social Media und den Verkehr zu analysieren.

  • Aufbewahrung und/oder Zugang zu deiner Geräte Informationen.

    Cookies, Geräte Bezeichnung oder andere Informationen, können aufbewahrt oder Zugang zu deinem Gerät erhalten, für den Grund, der oben angegeben wird.

  • Personalisierte Werbung und Inhalte, Messungen, Einblick in das Publikum und Produkt Entwicklung.

    Werbungen und Inhalte können personalisiert werden, basierend auf ein Profil. Mehr Daten können besser personalisierte Werbungen und Inhalte hinzufügen. Werbung und Inhalte können gezeigt und gemessen werden. Einblicke über das Publikum, welche die Werbung gesehen haben und den Inhalt, können abgeleitet werden. So wie Daten können genutzt werden, um es zu verbessern oder die Benutzer Erfahrung zu verbessern das System und die Software.

Wenn du “Ich stimme zu” klickst, erlaubst du uns, die Cookies zu benutzen die Geräte Bezeichnung, den Web oder ähnliche Technologien zu benutzen. Deine Settings, können in deinem Gerät bei deinem Browser geändert werden.

Für den bestimmten Zweck, berechtigten Interessen beruhen darauf, mehr als auf den Inhalt. Du kannst mehr darüber in unseren Privaten und Cookie Politik lesen.